Date String (YYYY-MM-DD hh:mm:ss) UTC,Instrument flags,Ambient pressure (hPa),Sample flow (lpm),Bypass flow (lpm),Sample temperature (°C),Ambient temperature (°C),ASC tube jacket temperature (°C),LED temperature (°C),Box temperature (°C),Sample RH (%),Span deviation,Mass concentration (μg/m³),Mass concentration (μg/m³),Mass concentration (μg/m³)
DateTimeUTC,F1_M11,P_M11,Q1_M11,Q2_M11,T1_M11,T2_M11,T3_M11,T4_M11,T5_M11,U1_M11,ZSPAN_M11,X0_M11,X2_M11,X1_M11
2022-01-26 00:00:00,,0830.5,5.01,0.00,22.0,21.2,00.0,31.3,23.6,10.9,0000.0,0003.93,0002.52,0002.42
2022-01-26 00:01:00,,0830.4,5.00,0.00,22.0,21.1,00.0,31.3,23.6,11.0,0000.0,0003.93,0002.48,0002.36
2022-01-26 00:02:00,,0830.6,5.00,0.00,22.0,21.1,00.0,31.2,23.5,11.0,0000.0,0003.94,0002.47,0002.33
2022-01-26 00:03:00,,0830.5,5.01,0.00,21.9,21.1,00.0,31.2,23.5,11.0,0000.0,0003.85,0002.43,0002.31
2022-01-26 00:04:00,,0830.5,5.00,0.00,21.9,21.0,00.0,31.2,23.5,11.0,0000.0,0003.85,0002.41,0002.30
2022-01-26 00:05:00,,0830.5,5.00,0.00,21.9,21.0,00.0,31.2,23.5,11.1,0000.0,0003.87,0002.40,0002.28
2022-01-26 00:06:00,,0830.6,5.00,0.00,21.9,21.0,00.0,31.1,23.4,11.1,0000.0,0003.92,0002.42,0002.27
2022-01-26 00:07:00,,0830.4,5.00,0.00,21.8,20.9,00.0,31.1,23.4,11.1,0000.0,0003.91,0002.42,0002.26
2022-01-26 00:08:00,,0830.4,4.99,0.00,21.8,20.9,00.0,31.1,23.4,11.2,0000.0,0003.77,0002.44,0002.26
2022-01-26 00:09:00,,0830.5,5.00,0.00,21.8,20.9,00.0,31.0,23.3,11.2,0000.0,0003.35,0002.47,0002.27
2022-01-26 00:10:00,,0830.5,5.02,0.00,21.7,20.9,00.0,31.0,23.3,11.2,0000.0,0003.30,0002.47,0002.28
2022-01-26 00:11:00,,0830.5,4.99,0.00,21.7,20.9,00.0,31.0,23.3,11.3,0000.0,0003.28,0002.48,0002.29
2022-01-26 00:12:00,,0830.5,5.00,0.00,21.7,20.8,00.0,30.9,23.3,11.3,0000.0,0003.32,0002.50,0002.32
2022-01-26 00:13:00,,0830.5,5.00,0.00,21.7,20.8,00.0,30.9,23.2,11.3,0000.0,0003.33,0002.51,0002.33
2022-01-26 00:14:00,,0830.5,5.00,0.00,21.6,20.8,00.0,30.9,23.2,11.3,0000.0,0003.35,0002.52,0002.35
2022-01-26 00:15:00,,0830.5,5.00,0.00,21.6,20.8,00.0,30.9,23.2,11.4,0000.0,0003.33,0002.53,0002.36
2022-01-26 00:16:00,,0830.5,5.00,0.00,21.6,20.8,00.0,30.8,23.2,11.4,0000.0,0003.31,0002.54,0002.38
2022-01-26 00:17:00,,0830.5,5.00,0.00,21.6,20.7,00.0,30.8,23.1,11.4,0000.0,0003.26,0002.53,0002.42
2022-01-26 00:18:00,,0830.5,5.00,0.00,21.6,20.8,00.0,30.8,23.2,11.4,0000.0,0003.48,0002.56,0002.45
2022-01-26 00:19:00,,0830.6,4.99,0.00,21.7,21.5,00.0,30.8,23.4,11.4,0000.0,0003.30,0002.56,0002.46
2022-01-26 00:20:00,,0830.5,5.02,0.00,21.8,22.2,00.0,30.9,23.8,11.3,0000.0,0002.78,0002.56,0002.49
2022-01-26 00:21:00,,0830.5,5.00,0.00,22.0,22.5,00.0,30.9,23.9,11.2,0000.0,0002.79,0002.58,0002.51
2022-01-26 00:22:00,,0830.6,5.00,0.00,22.0,22.2,00.0,30.9,23.9,11.2,0000.0,0002.80,0002.61,0002.54
2022-01-26 00:23:00,,0830.5,4.99,0.00,22.0,22.0,00.0,30.9,23.8,11.2,0000.0,0002.91,0002.66,0002.59
2022-01-26 00:24:00,,0830.5,5.01,0.00,22.0,21.8,00.0,30.9,23.7,11.2,0000.0,0002.98,0002.70,0002.62
2022-01-26 00:25:00,,0830.6,4.98,0.00,21.9,21.6,00.0,30.9,23.6,11.2,0000.0,0003.06,0002.76,0002.66
2022-01-26 00:26:00,,0830.5,5.01,0.00,21.9,21.5,00.0,30.9,23.6,11.2,0000.0,0003.15,0002.81,0002.68
2022-01-26 00:27:00,,0830.5,5.00,0.00,21.9,21.4,00.0,30.9,23.5,11.2,0000.0,0003.19,0002.84,0002.72
2022-01-26 00:28:00,,0830.6,5.00,0.00,21.8,21.2,00.0,30.9,23.5,11.2,0000.0,0003.22,0002.86,0002.74
2022-01-26 00:29:00,,0830.5,5.00,0.00,21.8,21.2,00.0,30.9,23.4,11.3,0000.0,0003.01,0002.87,0002.75
2022-01-26 00:30:00,,0830.5,5.00,0.00,21.8,21.1,00.0,30.9,23.4,11.3,0000.0,0003.03,0002.90,0002.78
2022-01-26 00:31:00,,0830.5,5.00,0.00,21.7,21.0,00.0,30.8,23.3,11.3,0000.0,0003.08,0002.92,0002.80
2022-01-26 00:32:00,,0830.6,5.00,0.00,21.7,20.9,00.0,30.8,23.3,11.4,0000.0,0003.10,0002.94,0002.82
2022-01-26 00:33:00,,0830.6,5.00,0.00,21.6,20.9,00.0,30.8,23.2,11.4,0000.0,0003.11,0002.96,0002.82
2022-01-26 00:34:00,,0830.5,5.00,0.00,21.6,20.8,00.0,30.8,23.2,11.5,0000.0,0002.99,0002.94,0002.81
2022-01-26 00:35:00,,0830.6,5.00,0.00,21.6,20.8,00.0,30.8,23.2,11.5,0000.0,0002.99,0002.94,0002.82
2022-01-26 00:36:00,,0830.6,5.00,0.00,21.5,20.7,00.0,30.7,23.1,11.5,0000.0,0002.99,0002.94,0002.82
2022-01-26 00:37:00,,0830.5,5.01,0.00,21.5,20.7,00.0,30.7,23.1,11.5,0000.0,0002.97,0002.93,0002.82
2022-01-26 00:38:00,,0830.6,5.00,0.00,21.5,20.7,00.0,30.7,23.1,11.5,0000.0,0003.02,0002.96,0002.82
2022-01-26 00:39:00,,0830.6,5.00,0.00,21.5,21.2,00.0,30.7,23.2,11.5,0000.0,0003.00,0002.94,0002.81
2022-01-26 00:40:00,,0830.6,5.00,0.00,21.7,22.0,00.0,30.7,23.5,11.4,0000.0,0003.07,0002.95,0002.80
2022-01-26 00:41:00,,0830.6,5.01,0.00,21.8,22.8,00.0,30.8,23.9,11.3,0000.0,0003.13,0002.94,0002.79
2022-01-26 00:42:00,,0830.5,4.98,0.00,22.0,22.8,00.0,30.8,23.9,11.2,0000.0,0003.09,0002.92,0002.77
2022-01-26 00:43:00,,0830.6,5.00,0.00,22.0,22.4,00.0,30.8,23.8,11.1,0000.0,0003.06,0002.90,0002.76
2022-01-26 00:44:00,,0830.5,4.99,0.00,21.9,22.1,00.0,30.8,23.7,11.1,0000.0,0003.03,0002.88,0002.75
2022-01-26 00:45:00,,0830.6,5.01,0.00,21.9,21.8,00.0,30.8,23.6,11.1,0000.0,0003.17,0002.90,0002.76
2022-01-26 00:46:00,,0830.6,5.01,0.00,21.8,21.5,00.0,30.8,23.4,11.2,0000.0,0003.86,0002.89,0002.76
2022-01-26 00:47:00,,0830.6,4.98,0.00,21.8,21.3,00.0,30.8,23.3,11.2,0000.0,0004.37,0002.88,0002.77
2022-01-26 00:48:00,,0830.6,5.01,0.00,21.7,21.2,00.0,30.8,23.2,11.2,0000.0,0004.36,0002.89,0002.79
2022-01-26 00:49:00,,0830.5,4.99,0.00,21.6,21.0,00.0,30.8,23.2,11.3,0000.0,0004.32,0002.89,0002.82
2022-01-26 00:50:00,,0830.6,5.01,0.00,21.6,20.9,00.0,30.8,23.1,11.3,0000.0,0004.35,0002.92,0002.85
2022-01-26 00:51:00,,0830.6,5.00,0.00,21.5,20.8,00.0,30.7,23.1,11.4,0000.0,0004.33,0002.95,0002.89
2022-01-26 00:52:00,,0830.6,4.99,0.00,21.5,20.7,00.0,30.7,23.0,11.4,0000.0,0004.39,0003.02,0002.93
2022-01-26 00:53:00,,0830.5,5.00,0.00,21.5,20.7,00.0,30.7,23.0,11.5,0000.0,0004.46,0003.07,0002.97
2022-01-26 00:54:00,,0830.6,5.00,0.00,21.4,20.6,00.0,30.7,23.0,11.5,0000.0,0004.54,0003.11,0003.00
2022-01-26 00:55:00,,0830.6,4.99,0.00,21.4,20.6,00.0,30.6,23.0,11.5,0000.0,0004.58,0003.13,0003.01
2022-01-26 00:56:00,,0830.6,5.00,0.00,21.4,20.5,00.0,30.6,22.9,11.5,0000.0,0004.51,0003.13,0003.01
2022-01-26 00:57:00,,0830.6,5.00,0.00,21.4,20.6,00.0,30.6,22.9,11.6,0000.0,0004.14,0003.13,0003.02
2022-01-26 00:58:00,,0830.6,5.00,0.00,21.4,21.1,00.0,30.6,23.1,11.6,0000.0,0003.31,0003.14,0003.01
2022-01-26 00:59:00,,0830.6,5.00,0.00,21.5,21.9,00.0,30.6,23.4,11.5,0000.0,0003.38,0003.15,0003.00
